User: anonymous   Login
Location: Luz Observatory
(34.5000°N, 117.2833°W)
Time: 21:21:40
(UTC-07:00)
Language:

Cosmos 1452 Rocket - Orbit

View from above orbital plane
View from above orbital plane
View from above satellite
View from above satellite

Ground track
Ground track

The orbit data is extracted from the following two-line orbital elements,

1 13992U 83031B   17295.62286294 +.00000090 +00000-0 +39921-4 0  9999
2 13992 074.0514 133.4167 0004064 081.6499 333.4272 14.36098244806811
Epoch (UTC): 22 October 2017 14:56:55
Eccentricity: 0.0004064
inclination: 74.0514°
perigee height: 768 km
apogee height: 774 km
right ascension of ascending node: 133.4167°
argument of perigee: 81.6499°
revolutions per day: 14.36098244
mean anomaly at epoch: 333.4272°
orbit number at epoch: 80681

The dashed part of the orbit path shows where the satellite is in the earth's shadow,  

DLR